Weather History for Boonville, MO

Change the Weather History Date:

Saturday, August 30, 2014

  Actual Average Record
Temperature  
Mean Temperature 80 °F -  
Max Temperature 96 °F 87 °F 106 °F (1984)
Min Temperature 71 °F 63 °F 48 °F (1986)
Cooling Degree Days 14    
Growing Degree Days 30 (Base 50)    
Moisture  
Dew Point 69 °F    
Average Humidity 72    
Maximum Humidity 92    
Minimum Humidity 46    
Precipitation  
Precipitation 0.00 in - - ()
Sea Level Pressure  
Sea Level Pressure 29.90 in    
Wind  
Wind Speed 4 mph (SW)    
Max Wind Speed 8 mph    
Max Gust Speed -    
Visibility 10 miles    
Events      
Averages and records for this station are not official NWS values.
T = Trace of Precipitation, MM = Missing Value Source: NWS Daily Summary

Daily Weather History Graph

Daily Weather History Graph

Search for Another Location

Airport:

Trip Planner

Search our weather history database for the weather conditions in past years. The results will help you decide how hot, cold, wet, or windy it might be!

Date:

Astronomy

Aug. 30, 2014 Rise Set
Actual Time 6:37 AM CDT 7:44 PM CDT
Civil Twilight 6:10 AM CDT 8:11 PM CDT
Nautical Twilight 5:37 AM CDT 8:44 PM CDT
Astronomical Twilight 5:03 AM CDT 9:18 PM CDT
Moon 11:23 AM CDT (8/30) 10:21 PM CDT (8/30)
Length of Visible Light 14h 01m
Length of Day
13h 06m
Waxing Crescent, 23% of the Moon is Illuminated
Aug 30
Waxing Crescent
Sep 2
First Quarter
Sep 8
Full
Sep 15
Last Quarter
Sep 24
New

Hourly Weather History & Observations

Time (CDT) Temp. Heat Index Dew Point Humidity Pressure Visibility Wind Dir Wind Speed Gust Speed Precip Events Conditions
12:15 AM 73.9 °F - 71.1 °F 91% 29.87 in 10.0 mi SSW 4.6 mph - N/A   Clear
12:35 AM 74.1 °F - 70.9 °F 90% 29.88 in 10.0 mi South 5.8 mph - N/A   Clear
12:55 AM 73.9 °F - 70.7 °F 90% 29.89 in 10.0 mi SSW 4.6 mph - N/A   Clear
1:15 AM 73.9 °F - 70.7 °F 90% 29.89 in 10.0 mi SSW 4.6 mph - N/A   Clear
1:35 AM 74.1 °F - 70.7 °F 89% 29.89 in 10.0 mi SSW 5.8 mph - N/A   Clear
1:55 AM 74.5 °F - 70.3 °F 87% 29.89 in 10.0 mi SSW 5.8 mph - N/A   Mostly Cloudy
2:15 AM 74.7 °F - 70.5 °F 87% 29.89 in 10.0 mi SW 5.8 mph - N/A   Overcast
2:55 AM 74.3 °F - 70.2 °F 87% 29.90 in 10.0 mi Calm Calm - N/A   Overcast
3:15 AM 73.6 °F - 70.2 °F 89% 29.90 in 10.0 mi Calm Calm - N/A   Overcast
3:35 AM 73.0 °F - 70.5 °F 92% 29.90 in 10.0 mi Calm Calm - N/A   Mostly Cloudy
3:55 AM 73.4 °F - 70.2 °F 90% 29.90 in 10.0 mi South 3.5 mph - N/A   Scattered Clouds
4:15 AM 73.4 °F - 70.3 °F 90% 29.89 in 10.0 mi Calm Calm - N/A   Mostly Cloudy
4:35 AM 73.4 °F - 70.3 °F 90% 29.89 in 10.0 mi South 4.6 mph - N/A   Mostly Cloudy
4:55 AM 73.2 °F - 70.0 °F 90% 29.89 in 10.0 mi Calm Calm - N/A   Scattered Clouds
5:35 AM 73.4 °F - 68.9 °F 86% 29.89 in 10.0 mi Calm Calm - N/A   Clear
6:15 AM 72.7 °F - 68.7 °F 87% 29.90 in 10.0 mi Calm Calm - N/A   Clear
6:35 AM 72.3 °F - 68.4 °F 87% 29.91 in 10.0 mi South 3.5 mph - N/A   Clear
6:55 AM 71.8 °F - 68.4 °F 89% 29.91 in 10.0 mi South 3.5 mph - N/A   Scattered Clouds
7:15 AM 71.8 °F - 68.5 °F 89% 29.91 in 10.0 mi South 4.6 mph - N/A   Mostly Cloudy
7:35 AM 72.3 °F - 68.9 °F 89% 29.92 in 10.0 mi South 4.6 mph - N/A   Scattered Clouds
7:55 AM 73.2 °F - 68.5 °F 85% 29.92 in 10.0 mi South 3.5 mph - N/A   Clear
8:15 AM 73.8 °F - 68.4 °F 83% 29.92 in 10.0 mi South 4.6 mph - N/A   Clear
8:35 AM 75.2 °F - 68.5 °F 80% 29.92 in 10.0 mi SSW 3.5 mph - N/A   Clear
8:55 AM 76.3 °F - 68.9 °F 78% 29.92 in 10.0 mi SW 8.1 mph - N/A   Clear
9:15 AM 77.5 °F - 69.1 °F 75% 29.92 in 7.0 mi WSW 8.1 mph - N/A   Scattered Clouds
9:35 AM 78.4 °F - 69.1 °F 73% 29.92 in 10.0 mi West 5.8 mph - N/A   Mostly Cloudy
9:55 AM 79.0 °F - 69.3 °F 72% 29.93 in 10.0 mi WSW 8.1 mph - N/A   Overcast
10:15 AM 79.2 °F - 69.4 °F 72% 29.93 in 10.0 mi West 3.5 mph - N/A   Overcast
10:35 AM 79.9 °F - 69.3 °F 70% 29.93 in 10.0 mi WSW 5.8 mph - N/A   Mostly Cloudy
10:55 AM 80.6 °F 83.6 °F 69.3 °F 68% 29.93 in 10.0 mi SSW 4.6 mph - N/A   Scattered Clouds
11:35 AM 82.9 °F 86.5 °F 69.3 °F 63% 29.93 in 10.0 mi WSW 5.8 mph - N/A   Mostly Cloudy
11:55 AM 82.4 °F 85.8 °F 69.1 °F 64% 29.93 in 10.0 mi SSW 5.8 mph - N/A   Mostly Cloudy
12:15 PM 83.7 °F 87.5 °F 69.3 °F 62% 29.93 in 10.0 mi SW 4.6 mph - N/A   Mostly Cloudy
12:35 PM 85.1 °F 88.5 °F 68.4 °F 57% 29.92 in 10.0 mi WSW 4.6 mph - N/A   Overcast
12:55 PM 85.3 °F 88.8 °F 68.5 °F 57% 29.92 in 10.0 mi SW 4.6 mph - N/A   Mostly Cloudy
1:55 PM 85.6 °F 89.1 °F 68.2 °F 56% 29.90 in 10.0 mi NW 4.6 mph - N/A   Scattered Clouds
2:15 PM 85.6 °F 88.5 °F 67.5 °F 54% 29.90 in 10.0 mi WNW 5.8 mph - N/A   Scattered Clouds
2:55 PM 87.3 °F 89.5 °F 65.8 °F 49% 29.89 in 10.0 mi WSW 5.8 mph - N/A   Scattered Clouds
3:15 PM 87.3 °F 89.5 °F 65.8 °F 49% 29.88 in 10.0 mi WNW 8.1 mph - N/A   Scattered Clouds
3:35 PM 87.6 °F 90.1 °F 66.4 °F 49% 29.88 in 10.0 mi NW 6.9 mph - N/A   Scattered Clouds
4:15 PM 88.0 °F 90.0 °F 65.7 °F 47% 29.87 in 10.0 mi West 5.8 mph - N/A   Clear
4:35 PM 88.0 °F 90.3 °F 66.0 °F 48% 29.87 in 10.0 mi NW 5.8 mph - N/A   Scattered Clouds
4:55 PM 87.6 °F 89.4 °F 65.1 °F 47% 29.87 in 10.0 mi West 4.6 mph - N/A   Scattered Clouds
5:15 PM 87.4 °F 88.8 °F 64.4 °F 46% 29.87 in 10.0 mi NW 4.6 mph - N/A   Clear
5:35 PM 87.1 °F 89.2 °F 65.7 °F 49% 29.87 in 10.0 mi North 3.5 mph - N/A   Clear
5:55 PM 86.7 °F 88.4 °F 65.1 °F 48% 29.88 in 10.0 mi NNW 3.5 mph - N/A   Clear
6:15 PM 86.4 °F 88.4 °F 65.5 °F 50% 29.88 in 10.0 mi North 3.5 mph - N/A   Clear
6:35 PM 86.2 °F 88.4 °F 65.8 °F 51% 29.88 in 10.0 mi NNW 3.5 mph - N/A   Clear
6:55 PM 85.5 °F 88.2 °F 67.3 °F 54% 29.88 in 10.0 mi Calm Calm - N/A   Clear
7:15 PM 84.0 °F 87.3 °F 68.4 °F 59% 29.88 in 10.0 mi Calm Calm - N/A   Clear
7:35 PM 82.6 °F 86.4 °F 69.8 °F 65% 29.88 in 10.0 mi Calm Calm - N/A   Clear
7:55 PM 81.0 °F 84.4 °F 70.0 °F 69% 29.89 in 10.0 mi Calm Calm - N/A   Clear
8:15 PM 81.3 °F 84.5 °F 69.1 °F 66% 29.89 in 10.0 mi Calm Calm - N/A   Mostly Cloudy
8:35 PM 80.6 °F 83.6 °F 69.1 °F 68% 29.90 in 10.0 mi East 3.5 mph - N/A   Scattered Clouds
8:55 PM 79.2 °F - 69.1 °F 71% 29.90 in 10.0 mi East 4.6 mph - N/A   Clear
9:15 PM 77.9 °F - 69.4 °F 75% 29.90 in 10.0 mi SE 4.6 mph - N/A   Clear
9:35 PM 77.9 °F - 69.4 °F 75% 29.91 in 10.0 mi SE 5.8 mph - N/A   Mostly Cloudy
9:55 PM 77.9 °F - 69.6 °F 76% 29.91 in 10.0 mi Calm Calm - N/A   Overcast
10:15 PM 76.6 °F - 69.4 °F 78% 29.91 in 10.0 mi SSE 4.6 mph - N/A   Mostly Cloudy
10:35 PM 75.9 °F - 69.3 °F 80% 29.91 in 10.0 mi SSE 4.6 mph - N/A   Scattered Clouds
10:55 PM 75.0 °F - 69.8 °F 84% 29.92 in 10.0 mi Calm Calm - N/A   Clear
11:35 PM 74.5 °F - 70.5 °F 87% 29.91 in 10.0 mi Calm Calm - N/A   Clear